Вернуться в каталог

KUIPER-00041

АктивенСвязьLEO
NORAD 64502·PAYLOAD·🇺🇸 United States

Запущен Jun 23, 2025 с Cape Canaveral Space Force Station

Loading…

Ближайшие Пролёты (ближайшие 24 часа)

TLE

СвежийSource: CelesTrak SupGP

Эпоха: Sep 14, 2026, 21:50 UTC

1 64502C 25134C   26257.91018519  .00003455  00000+0  45245-3 0  2574
2 64502  51.8974 128.8378 0000833 100.6753 298.1291 14.79914992    14

Отслеживайте KUIPER-00041 в реальном времени с AllMySat

Download on the App Store